Time,TemperatureF,DewpointF,PressureIn,WindDirection,WindDirectionDegrees,WindSpeedMPH,WindSpeedGustMPH,Humidity,HourlyPrecipIn,Conditions,Clouds,dailyrainin,SoftwareType,DateUTC
2013-04-05 00:05:00,39.0,27.1,29.95,NNW,332,3.0,7.0,62,0.00,CLR,,0.00,WeatherDisplay:10.37,2013-04-05 05:05:00,
2013-04-05 00:15:00,38.6,27.1,29.96,NNW,334,3.0,8.0,63,0.00,CLR,,0.00,WeatherDisplay:10.37,2013-04-05 05:15:00,
2013-04-05 00:20:00,38.5,27.0,29.96,NNW,336,5.0,9.0,63,0.00,CLR,,0.00,WeatherDisplay:10.37,2013-04-05 05:20:00,
2013-04-05 00:25:00,38.3,27.2,29.96,NNW,341,3.0,6.0,64,0.00,CLR,,0.00,WeatherDisplay:10.37,2013-04-05 05:25:00,
2013-04-05 00:30:00,38.2,27.1,29.97,NNW,347,5.0,7.0,64,0.00,CLR,,0.00,WeatherDisplay:10.37,2013-04-05 05:30:00,
2013-04-05 00:35:00,37.9,26.8,29.97,NNW,343,5.0,10.0,64,0.00,CLR,,0.00,WeatherDisplay:10.37,2013-04-05 05:35:00,
2013-04-05 00:40:00,37.6,27.3,29.97,NNW,340,5.0,7.0,66,0.00,CLR,,0.00,WeatherDisplay:10.37,2013-04-05 05:40:00,
2013-04-05 00:45:00,37.5,27.2,29.97,North,351,5.0,6.0,66,0.00,CLR,,0.00,WeatherDisplay:10.37,2013-04-05 05:45:00,
2013-04-05 00:50:00,37.3,27.0,29.97,North,352,5.0,9.0,66,0.00,CLR,,0.00,WeatherDisplay:10.37,2013-04-05 05:50:00,
2013-04-05 00:55:00,37.2,27.2,29.97,NNW,347,5.0,8.0,67,0.00,CLR,,0.00,WeatherDisplay:10.37,2013-04-05 05:55:00,
2013-04-05 01:00:00,36.9,27.3,29.98,North,356,5.0,9.0,68,0.00,CLR,,0.00,WeatherDisplay:10.37,2013-04-05 06:00:00,
2013-04-05 01:05:00,36.3,27.5,29.98,North,4,5.0,6.0,70,0.00,CLR,,0.00,WeatherDisplay:10.37,2013-04-05 06:05:00,
2013-04-05 01:15:00,35.9,27.4,29.99,North,7,7.0,8.0,71,0.00,CLR,,0.00,WeatherDisplay:10.37,2013-04-05 06:15:00,
2013-04-05 01:25:00,35.6,27.5,29.99,North,4,5.0,8.0,72,0.00,CLR,,0.00,WeatherDisplay:10.37,2013-04-05 06:25:00,
2013-04-05 01:30:00,35.5,27.4,29.99,North,2,6.0,8.0,72,0.00,CLR,,0.00,WeatherDisplay:10.37,2013-04-05 06:30:00,
2013-04-05 01:35:00,35.5,27.0,29.99,North,5,5.0,10.0,71,0.00,CLR,,0.00,WeatherDisplay:10.37,2013-04-05 06:35:00,
2013-04-05 01:40:00,35.3,27.2,29.99,North,10,6.0,8.0,72,0.00,CLR,,0.00,WeatherDisplay:10.37,2013-04-05 06:40:00,
2013-04-05 01:45:00,35.2,27.1,29.99,NNE,12,5.0,6.0,72,0.00,CLR,,0.00,WeatherDisplay:10.37,2013-04-05 06:45:00,
2013-04-05 01:55:00,34.6,26.8,29.99,NNE,15,3.0,6.0,73,0.00,CLR,,0.00,WeatherDisplay:10.37,2013-04-05 06:55:00,
2013-04-05 02:00:00,34.4,27.0,29.99,NNE,15,5.0,7.0,74,0.00,CLR,,0.00,WeatherDisplay:10.37,2013-04-05 07:00:00,
2013-04-05 02:05:00,34.3,26.9,29.99,NNE,15,6.0,8.0,74,0.00,CLR,,0.00,WeatherDisplay:10.37,2013-04-05 07:05:00,
2013-04-05 02:10:00,34.1,26.7,29.99,North,10,6.0,8.0,74,0.00,CLR,,0.00,WeatherDisplay:10.37,2013-04-05 07:10:00,
2013-04-05 02:15:00,34.0,26.9,30.00,North,11,6.0,7.0,75,0.00,CLR,,0.00,WeatherDisplay:10.37,2013-04-05 07:15:00,
2013-04-05 02:20:00,33.8,26.7,30.00,NNE,13,5.0,6.0,75,0.00,CLR,,0.00,WeatherDisplay:10.37,2013-04-05 07:20:00,
2013-04-05 02:25:00,33.7,26.6,30.00,NNE,14,6.0,8.0,75,0.00,CLR,,0.00,WeatherDisplay:10.37,2013-04-05 07:25:00,
2013-04-05 02:30:00,33.7,26.9,30.00,NNE,23,5.0,8.0,76,0.00,CLR,,0.00,WeatherDisplay:10.37,2013-04-05 07:30:00,
2013-04-05 02:35:00,33.5,26.7,30.00,NNE,24,6.0,8.0,76,0.00,CLR,,0.00,WeatherDisplay:10.37,2013-04-05 07:35:00,
2013-04-05 02:45:00,33.8,26.4,30.00,NNE,21,6.0,8.0,74,0.00,CLR,,0.00,WeatherDisplay:10.37,2013-04-05 07:45:00,
2013-04-05 02:50:00,33.6,26.2,30.00,NNE,17,6.0,8.0,74,0.00,CLR,,0.00,WeatherDisplay:10.37,2013-04-05 07:50:00,
2013-04-05 02:55:00,33.5,26.1,30.00,NNE,14,6.0,8.0,74,0.00,CLR,,0.00,WeatherDisplay:10.37,2013-04-05 07:55:00,
2013-04-05 03:00:00,33.5,26.1,30.00,NNE,15,5.0,7.0,74,0.00,CLR,,0.00,WeatherDisplay:10.37,2013-04-05 08:00:00,
2013-04-05 03:10:00,33.2,26.1,30.00,NNE,15,5.0,7.0,75,0.00,CLR,,0.00,WeatherDisplay:10.37,2013-04-05 08:10:00,
2013-04-05 03:15:00,33.1,26.0,30.01,NNE,16,5.0,6.0,75,0.00,CLR,,0.00,WeatherDisplay:10.37,2013-04-05 08:15:00,
2013-04-05 03:20:00,33.1,26.0,30.01,NNE,18,3.0,5.0,75,0.00,CLR,,0.00,WeatherDisplay:10.37,2013-04-05 08:20:00,
2013-04-05 03:25:00,32.9,25.8,30.01,NNE,21,2.0,4.0,75,0.00,CLR,,0.00,WeatherDisplay:10.37,2013-04-05 08:25:00,
2013-04-05 03:35:00,32.8,25.7,30.01,NNE,18,2.0,3.0,75,0.00,CLR,,0.00,WeatherDisplay:10.37,2013-04-05 08:35:00,
2013-04-05 03:40:00,32.7,26.0,30.01,NNE,15,2.0,4.0,76,0.00,CLR,,0.00,WeatherDisplay:10.37,2013-04-05 08:40:00,
2013-04-05 03:50:00,32.3,25.6,30.02,NNE,15,1.0,4.0,76,0.00,CLR,,0.00,WeatherDisplay:10.37,2013-04-05 08:50:00,
2013-04-05 03:55:00,32.2,25.5,30.02,NNE,22,2.0,4.0,76,0.00,CLR,,0.00,WeatherDisplay:10.37,2013-04-05 08:55:00,
2013-04-05 04:00:00,32.1,25.4,30.03,NNE,26,2.0,4.0,76,0.00,CLR,,0.00,WeatherDisplay:10.37,2013-04-05 09:00:00,
2013-04-05 04:10:00,32.1,25.4,30.03,NNE,26,3.0,4.0,76,0.00,CLR,,0.00,WeatherDisplay:10.37,2013-04-05 09:10:00,
2013-04-05 04:15:00,32.1,25.1,30.03,NNE,26,2.0,4.0,75,0.00,CLR,,0.00,WeatherDisplay:10.37,2013-04-05 09:15:00,
2013-04-05 04:20:00,32.1,25.1,30.03,NNE,25,2.0,4.0,75,0.00,CLR,,0.00,WeatherDisplay:10.37,2013-04-05 09:20:00,
2013-04-05 04:25:00,32.1,25.1,30.03,NNE,25,3.0,4.0,75,0.00,CLR,,0.00,WeatherDisplay:10.37,2013-04-05 09:25:00,
2013-04-05 04:30:00,31.9,24.9,30.04,NNE,24,2.0,4.0,75,0.00,CLR,,0.00,WeatherDisplay:10.37,2013-04-05 09:30:00,
2013-04-05 04:35:00,31.8,24.8,30.04,NNE,24,1.0,2.0,75,0.00,CLR,,0.00,WeatherDisplay:10.37,2013-04-05 09:35:00,
2013-04-05 04:40:00,31.5,24.5,30.04,NNE,24,0.0,2.0,75,0.00,CLR,,0.00,WeatherDisplay:10.37,2013-04-05 09:40:00,
2013-04-05 04:45:00,31.3,24.3,30.05,NNE,24,1.0,2.0,75,0.00,CLR,,0.00,WeatherDisplay:10.37,2013-04-05 09:45:00,
2013-04-05 04:50:00,31.1,24.4,30.05,NNE,24,0.0,1.0,76,0.00,CLR,,0.00,WeatherDisplay:10.37,2013-04-05 09:50:00,
2013-04-05 04:55:00,30.9,24.2,30.05,NNE,24,0.0,0.0,76,0.00,CLR,,0.00,WeatherDisplay:10.37,2013-04-05 09:55:00,
2013-04-05 05:00:00,30.7,24.0,30.05,NNE,24,0.0,2.0,76,0.00,CLR,,0.00,WeatherDisplay:10.37,2013-04-05 10:00:00,
2013-04-05 05:10:00,30.4,24.0,30.05,NNE,24,0.0,2.0,77,0.00,CLR,,0.00,WeatherDisplay:10.37,2013-04-05 10:10:00,
2013-04-05 05:15:00,30.2,23.8,30.05,NNE,24,0.0,1.0,77,0.00,CLR,,0.00,WeatherDisplay:10.37,2013-04-05 10:15:00,
2013-04-05 05:20:00,29.9,23.9,30.05,NNE,24,1.0,2.0,78,0.00,CLR,,0.00,WeatherDisplay:10.37,2013-04-05 10:20:00,
2013-04-05 05:25:00,29.5,23.8,30.05,NNE,24,1.0,2.0,79,0.00,CLR,,0.00,WeatherDisplay:10.37,2013-04-05 10:25:00,
2013-04-05 05:35:00,29.3,23.9,30.06,NNE,24,1.0,4.0,80,0.00,CLR,,0.00,WeatherDisplay:10.37,2013-04-05 10:35:00,
2013-04-05 05:40:00,29.3,23.9,30.06,NNE,24,2.0,3.0,80,0.00,CLR,,0.00,WeatherDisplay:10.37,2013-04-05 10:40:00,
2013-04-05 05:45:00,29.3,23.9,30.06,NNE,24,1.0,2.0,80,0.00,CLR,,0.00,WeatherDisplay:10.37,2013-04-05 10:45:00,
2013-04-05 05:50:00,29.2,23.8,30.06,NNE,24,2.0,3.0,80,0.00,CLR,,0.00,WeatherDisplay:10.37,2013-04-05 10:50:00,
2013-04-05 06:00:00,29.1,24.0,30.07,NNE,24,2.0,4.0,81,0.00,CLR,,0.00,WeatherDisplay:10.37,2013-04-05 11:00:00,
2013-04-05 06:10:00,29.4,24.0,30.07,NNE,24,2.0,4.0,80,0.00,CLR,,0.00,WeatherDisplay:10.37,2013-04-05 11:10:00,
2013-04-05 06:15:00,29.8,23.8,30.08,NNE,24,2.0,4.0,78,0.00,CLR,,0.00,WeatherDisplay:10.37,2013-04-05 11:15:00,
2013-04-05 06:20:00,30.0,23.7,30.08,NNE,24,2.0,4.0,77,0.00,CLR,,0.00,WeatherDisplay:10.37,2013-04-05 11:20:00,
2013-04-05 06:25:00,30.0,24.0,30.08,NNE,23,2.0,4.0,78,0.00,CLR,,0.00,WeatherDisplay:10.37,2013-04-05 11:25:00,
2013-04-05 06:35:00,29.6,23.6,30.09,North,9,2.0,4.0,78,0.00,CLR,,0.00,WeatherDisplay:10.37,2013-04-05 11:35:00,
2013-04-05 06:40:00,29.5,23.5,30.09,North,9,2.0,4.0,78,0.00,CLR,,0.00,WeatherDisplay:10.37,2013-04-05 11:40:00,
2013-04-05 06:50:00,29.5,23.5,30.09,North,10,0.0,2.0,78,0.00,CLR,,0.00,WeatherDisplay:10.37,2013-04-05 11:50:00,
2013-04-05 06:55:00,29.4,23.7,30.09,North,10,1.0,2.0,79,0.00,CLR,,0.00,WeatherDisplay:10.37,2013-04-05 11:55:00,
2013-04-05 07:00:00,29.4,23.7,30.10,North,10,2.0,4.0,79,0.00,CLR,,0.00,WeatherDisplay:10.37,2013-04-05 12:00:00,
2013-04-05 07:05:00,29.7,24.0,30.10,North,11,2.0,5.0,79,0.00,CLR,,0.00,WeatherDisplay:10.37,2013-04-05 12:05:00,
2013-04-05 07:15:00,30.2,24.2,30.11,NNE,21,2.0,4.0,78,0.00,CLR,,0.00,WeatherDisplay:10.37,2013-04-05 12:15:00,
2013-04-05 07:20:00,30.4,24.4,30.11,NNE,13,2.0,4.0,78,0.00,CLR,,0.00,WeatherDisplay:10.37,2013-04-05 12:20:00,
2013-04-05 07:30:00,30.7,24.3,30.11,NNE,17,3.0,5.0,77,0.00,CLR,,0.00,WeatherDisplay:10.37,2013-04-05 12:30:00,
2013-04-05 07:35:00,31.0,24.3,30.11,NNE,23,5.0,7.0,76,0.00,CLR,,0.00,WeatherDisplay:10.37,2013-04-05 12:35:00,
2013-04-05 07:40:00,31.3,24.3,30.11,NNE,27,3.0,6.0,75,0.00,CLR,,0.00,WeatherDisplay:10.37,2013-04-05 12:40:00,
2013-04-05 07:45:00,31.6,24.9,30.12,NNE,29,5.0,7.0,76,0.00,CLR,,0.00,WeatherDisplay:10.37,2013-04-05 12:45:00,
2013-04-05 07:50:00,31.9,24.6,30.12,NNE,27,5.0,8.0,74,0.00,CLR,,0.00,WeatherDisplay:10.37,2013-04-05 12:50:00,
2013-04-05 08:00:00,32.4,24.4,30.12,NE,43,3.0,8.0,72,0.00,CLR,,0.00,WeatherDisplay:10.37,2013-04-05 13:00:00,
2013-04-05 08:05:00,32.5,24.5,30.12,NE,39,3.0,12.0,72,0.00,CLR,,0.00,WeatherDisplay:10.37,2013-04-05 13:05:00,
2013-04-05 08:10:00,32.8,24.7,30.12,NE,46,3.0,7.0,72,0.00,CLR,,0.00,WeatherDisplay:10.37,2013-04-05 13:10:00,
2013-04-05 08:15:00,32.8,24.4,30.14,NE,43,5.0,9.0,71,0.00,CLR,,0.00,WeatherDisplay:10.37,2013-04-05 13:15:00,
2013-04-05 08:20:00,33.0,24.9,30.14,NE,38,5.0,7.0,72,0.00,CLR,,0.00,WeatherDisplay:10.37,2013-04-05 13:20:00,
2013-04-05 08:25:00,33.2,25.1,30.14,NE,46,6.0,9.0,72,0.00,CLR,,0.00,WeatherDisplay:10.37,2013-04-05 13:25:00,
2013-04-05 08:30:00,33.5,24.8,30.14,ENE,58,7.0,12.0,70,0.00,CLR,,0.00,WeatherDisplay:10.37,2013-04-05 13:30:00,
2013-04-05 08:35:00,33.8,26.1,30.14,ENE,66,3.0,12.0,73,0.00,CLR,,0.00,WeatherDisplay:10.37,2013-04-05 13:35:00,
2013-04-05 08:45:00,34.0,25.2,30.14,NE,56,5.0,10.0,70,0.00,CLR,,0.00,WeatherDisplay:10.37,2013-04-05 13:45:00,
2013-04-05 08:50:00,34.0,25.6,30.14,ENE,60,6.0,12.0,71,0.00,CLR,,0.00,WeatherDisplay:10.37,2013-04-05 13:50:00,
2013-04-05 08:55:00,34.1,25.3,30.14,ENE,67,6.0,12.0,70,0.00,CLR,,0.00,WeatherDisplay:10.37,2013-04-05 13:55:00,
2013-04-05 09:00:00,34.3,25.9,30.14,ENE,65,5.0,9.0,71,0.00,CLR,,0.00,WeatherDisplay:10.37,2013-04-05 14:00:00,
2013-04-05 09:05:00,34.4,24.6,30.14,ENE,69,7.0,13.0,67,0.00,CLR,,0.00,WeatherDisplay:10.37,2013-04-05 14:05:00,
2013-04-05 09:10:00,34.3,25.9,30.14,ENE,76,6.0,12.0,71,0.00,CLR,,0.00,WeatherDisplay:10.37,2013-04-05 14:10:00,
2013-04-05 09:15:00,34.6,24.8,30.14,ENE,67,7.0,10.0,67,0.00,CLR,,0.00,WeatherDisplay:10.37,2013-04-05 14:15:00,
2013-04-05 09:20:00,34.4,24.2,30.14,ENE,65,7.0,12.0,66,0.00,CLR,,0.00,WeatherDisplay:10.37,2013-04-05 14:20:00,
2013-04-05 09:25:00,34.7,24.9,30.14,ENE,58,6.0,10.0,67,0.00,CLR,,0.00,WeatherDisplay:10.37,2013-04-05 14:25:00,
2013-04-05 09:30:00,34.9,24.7,30.14,ENE,66,7.0,12.0,66,0.00,CLR,,0.00,WeatherDisplay:10.37,2013-04-05 14:30:00,
2013-04-05 09:35:00,35.0,26.2,30.14,ENE,70,7.0,10.0,70,0.00,CLR,,0.00,WeatherDisplay:10.37,2013-04-05 14:35:00,
2013-04-05 09:45:00,35.2,25.0,30.15,ENE,77,7.0,10.0,66,0.00,CLR,,0.00,WeatherDisplay:10.37,2013-04-05 14:45:00,
2013-04-05 09:50:00,35.3,24.7,30.15,ENE,74,6.0,12.0,65,0.00,CLR,,0.00,WeatherDisplay:10.37,2013-04-05 14:50:00,
2013-04-05 10:00:00,35.6,24.6,30.15,ENE,74,6.0,9.0,64,0.00,CLR,,0.00,WeatherDisplay:10.37,2013-04-05 15:00:00,
2013-04-05 10:05:00,35.6,25.4,30.15,ENE,75,7.0,12.0,66,0.00,CLR,,0.00,WeatherDisplay:10.37,2013-04-05 15:05:00,
2013-04-05 10:15:00,36.2,25.2,30.16,ENE,68,6.0,8.0,64,0.00,CLR,,0.00,WeatherDisplay:10.37,2013-04-05 15:15:00,
2013-04-05 10:25:00,36.5,25.8,30.16,ENE,72,6.0,10.0,65,0.00,CLR,,0.00,WeatherDisplay:10.37,2013-04-05 15:25:00,
2013-04-05 10:30:00,36.6,25.2,30.16,ENE,60,5.0,9.0,63,0.00,CLR,,0.00,WeatherDisplay:10.37,2013-04-05 15:30:00,
2013-04-05 10:35:00,36.3,24.6,30.16,ENE,61,3.0,9.0,62,0.00,CLR,,0.00,WeatherDisplay:10.37,2013-04-05 15:35:00,
2013-04-05 10:40:00,36.7,25.7,30.16,ENE,65,3.0,7.0,64,0.00,CLR,,0.00,WeatherDisplay:10.37,2013-04-05 15:40:00,
2013-04-05 10:45:00,37.3,25.4,30.16,ENE,65,3.0,8.0,62,0.00,CLR,,0.00,WeatherDisplay:10.37,2013-04-05 15:45:00,
2013-04-05 10:50:00,37.8,24.7,30.16,ENE,75,2.0,8.0,59,0.00,CLR,,0.00,WeatherDisplay:10.37,2013-04-05 15:50:00,
2013-04-05 10:55:00,38.1,25.4,30.16,East,80,1.0,8.0,60,0.00,CLR,,0.00,WeatherDisplay:10.37,2013-04-05 15:55:00,
2013-04-05 11:05:00,38.0,24.1,30.16,ENE,61,3.0,9.0,57,0.00,CLR,,0.00,WeatherDisplay:10.37,2013-04-05 16:05:00,
2013-04-05 11:10:00,37.8,23.9,30.16,ENE,63,3.0,9.0,57,0.00,CLR,,0.00,WeatherDisplay:10.37,2013-04-05 16:10:00,
2013-04-05 11:15:00,38.0,24.1,30.16,ENE,68,6.0,8.0,57,0.00,CLR,,0.00,WeatherDisplay:10.37,2013-04-05 16:15:00,
2013-04-05 11:20:00,38.0,22.8,30.16,ENE,75,5.0,8.0,54,0.00,CLR,,0.00,WeatherDisplay:10.37,2013-04-05 16:20:00,
2013-04-05 11:30:00,37.9,23.6,30.16,NE,40,5.0,7.0,56,0.00,CLR,,0.00,WeatherDisplay:10.37,2013-04-05 16:30:00,
2013-04-05 11:40:00,38.8,24.4,30.16,ENE,59,1.0,7.0,56,0.00,CLR,,0.00,WeatherDisplay:10.37,2013-04-05 16:40:00,
2013-04-05 11:45:00,39.3,24.5,30.15,ENE,65,2.0,4.0,55,0.00,CLR,,0.00,WeatherDisplay:10.37,2013-04-05 16:45:00,
2013-04-05 11:50:00,39.3,24.0,30.15,NE,52,3.0,7.0,54,0.00,CLR,,0.00,WeatherDisplay:10.37,2013-04-05 16:50:00,
2013-04-05 11:55:00,39.1,23.4,30.15,ENE,62,3.0,9.0,53,0.00,CLR,,0.00,WeatherDisplay:10.37,2013-04-05 16:55:00,
2013-04-05 12:05:00,39.3,23.6,30.14,NE,52,5.0,8.0,53,0.00,CLR,,0.00,WeatherDisplay:10.37,2013-04-05 17:05:00,
2013-04-05 12:10:00,39.5,23.8,30.14,ENE,60,3.0,8.0,53,0.00,CLR,,0.00,WeatherDisplay:10.37,2013-04-05 17:10:00,
2013-04-05 12:15:00,39.1,22.0,30.14,ENE,62,2.0,6.0,50,0.00,CLR,,0.00,WeatherDisplay:10.37,2013-04-05 17:15:00,
2013-04-05 12:20:00,39.6,24.3,30.14,ESE,104,5.0,8.0,54,0.00,CLR,,0.00,WeatherDisplay:10.37,2013-04-05 17:20:00,
2013-04-05 12:25:00,40.1,24.3,30.14,East,99,0.0,6.0,53,0.00,CLR,,0.00,WeatherDisplay:10.37,2013-04-05 17:25:00,
2013-04-05 12:30:00,40.8,22.6,30.14,ESE,113,1.0,4.0,48,0.00,CLR,,0.00,WeatherDisplay:10.37,2013-04-05 17:30:00,
2013-04-05 12:40:00,40.6,21.4,30.14,East,86,1.0,6.0,46,0.00,CLR,,0.00,WeatherDisplay:10.37,2013-04-05 17:40:00,
2013-04-05 12:45:00,40.8,23.6,30.13,ESE,114,0.0,7.0,50,0.00,CLR,,0.00,WeatherDisplay:10.37,2013-04-05 17:45:00,
2013-04-05 12:50:00,41.1,21.9,30.13,ESE,106,2.0,8.0,46,0.00,CLR,,0.00,WeatherDisplay:10.37,2013-04-05 17:50:00,
2013-04-05 13:00:00,40.2,22.6,30.13,NE,53,5.0,9.0,49,0.00,CLR,,0.00,WeatherDisplay:10.37,2013-04-05 18:00:00,
2013-04-05 13:05:00,40.6,21.9,30.13,East,100,0.0,5.0,47,0.00,CLR,,0.00,WeatherDisplay:10.37,2013-04-05 18:05:00,
2013-04-05 13:15:00,41.3,25.0,30.13,SE,124,1.0,4.0,52,0.00,CLR,,0.00,WeatherDisplay:10.37,2013-04-05 18:15:00,
2013-04-05 13:20:00,41.2,23.5,30.13,NE,55,3.0,7.0,49,0.00,CLR,,0.00,WeatherDisplay:10.37,2013-04-05 18:20:00,
2013-04-05 13:25:00,40.9,23.7,30.13,NE,53,2.0,8.0,50,0.00,CLR,,0.00,WeatherDisplay:10.37,2013-04-05 18:25:00,
2013-04-05 13:30:00,41.2,24.4,30.12,ESE,103,2.0,7.0,51,0.00,CLR,,0.00,WeatherDisplay:10.37,2013-04-05 18:30:00,
2013-04-05 13:40:00,41.1,24.4,30.12,ENE,61,5.0,7.0,51,0.00,CLR,,0.00,WeatherDisplay:10.37,2013-04-05 18:40:00,
2013-04-05 13:50:00,40.8,20.0,30.12,NE,39,3.0,10.0,43,0.00,CLR,,0.00,WeatherDisplay:10.37,2013-04-05 18:50:00,
2013-04-05 13:55:00,41.1,22.9,30.12,NE,54,5.0,8.0,48,0.00,CLR,,0.00,WeatherDisplay:10.37,2013-04-05 18:55:00,
2013-04-05 14:00:00,40.8,21.1,30.11,NNE,31,3.0,6.0,45,0.00,CLR,,0.00,WeatherDisplay:10.37,2013-04-05 19:00:00,
2013-04-05 14:05:00,40.9,20.1,30.11,NNW,337,0.0,5.0,43,0.00,CLR,,0.00,WeatherDisplay:10.37,2013-04-05 19:05:00,
2013-04-05 14:10:00,41.5,22.8,30.11,WNW,295,2.0,5.0,47,0.00,CLR,,0.00,WeatherDisplay:10.37,2013-04-05 19:10:00,
2013-04-05 14:15:00,41.9,25.1,30.11,ENE,71,3.0,7.0,51,0.00,CLR,,0.00,WeatherDisplay:10.37,2013-04-05 19:15:00,
2013-04-05 14:20:00,41.9,22.6,30.11,East,82,1.0,10.0,46,0.00,CLR,,0.00,WeatherDisplay:10.37,2013-04-05 19:20:00,
2013-04-05 14:25:00,42.1,23.8,30.11,ENE,66,2.0,8.0,48,0.00,CLR,,0.00,WeatherDisplay:10.37,2013-04-05 19:25:00,
2013-04-05 14:30:00,41.6,21.8,30.11,NNE,29,3.0,8.0,45,0.00,CLR,,0.00,WeatherDisplay:10.37,2013-04-05 19:30:00,
2013-04-05 14:35:00,41.3,21.5,30.11,NNE,27,1.0,5.0,45,0.00,CLR,,0.00,WeatherDisplay:10.37,2013-04-05 19:35:00,
2013-04-05 14:45:00,41.6,22.8,30.10,NE,37,3.0,7.0,47,0.00,CLR,,0.00,WeatherDisplay:10.37,2013-04-05 19:45:00,
2013-04-05 14:50:00,41.8,22.0,30.10,NE,37,5.0,7.0,45,0.00,CLR,,0.00,WeatherDisplay:10.37,2013-04-05 19:50:00,
2013-04-05 15:00:00,42.1,22.3,30.10,ENE,57,5.0,7.0,45,0.00,CLR,,0.00,WeatherDisplay:10.37,2013-04-05 20:00:00,
2013-04-05 15:10:00,42.1,21.7,30.10,ENE,60,0.0,7.0,44,0.00,CLR,,0.00,WeatherDisplay:10.37,2013-04-05 20:10:00,
2013-04-05 15:15:00,42.3,21.4,30.10,East,81,0.0,1.0,43,0.00,CLR,,0.00,WeatherDisplay:10.37,2013-04-05 20:15:00,
2013-04-05 15:20:00,42.3,21.9,30.10,NE,35,1.0,3.0,44,0.00,CLR,,0.00,WeatherDisplay:10.37,2013-04-05 20:20:00,
2013-04-05 15:30:00,42.5,23.2,30.10,NNW,333,2.0,5.0,46,0.00,CLR,,0.00,WeatherDisplay:10.37,2013-04-05 20:30:00,
2013-04-05 15:35:00,42.8,22.9,30.10,NNW,346,0.0,3.0,45,0.00,CLR,,0.00,WeatherDisplay:10.37,2013-04-05 20:35:00,
2013-04-05 15:40:00,42.9,22.5,30.10,NNE,18,1.0,3.0,44,0.00,CLR,,0.00,WeatherDisplay:10.37,2013-04-05 20:40:00,
2013-04-05 15:45:00,42.6,21.1,30.09,North,358,0.0,4.0,42,0.00,CLR,,0.00,WeatherDisplay:10.37,2013-04-05 20:45:00,
2013-04-05 15:50:00,42.3,20.8,30.09,NNW,344,2.0,4.0,42,0.00,CLR,,0.00,WeatherDisplay:10.37,2013-04-05 20:50:00,
2013-04-05 15:55:00,42.1,21.7,30.09,NW,318,1.0,4.0,44,0.00,CLR,,0.00,WeatherDisplay:10.37,2013-04-05 20:55:00,
2013-04-05 16:05:00,42.5,19.8,30.09,WNW,282,2.0,4.0,40,0.00,CLR,,0.00,WeatherDisplay:10.37,2013-04-05 21:05:00,
2013-04-05 16:10:00,42.3,20.8,30.09,WNW,293,2.0,4.0,42,0.00,CLR,,0.00,WeatherDisplay:10.37,2013-04-05 21:10:00,
2013-04-05 16:20:00,42.3,21.4,30.08,NW,312,1.0,4.0,43,0.00,CLR,,0.00,WeatherDisplay:10.37,2013-04-05 21:20:00,
2013-04-05 16:25:00,42.6,20.5,30.08,NW,312,1.0,2.0,41,0.00,CLR,,0.00,WeatherDisplay:10.37,2013-04-05 21:25:00,
2013-04-05 16:35:00,43.1,21.0,30.08,ENE,58,1.0,4.0,41,0.00,CLR,,0.00,WeatherDisplay:10.37,2013-04-05 21:35:00,
2013-04-05 16:45:00,42.9,20.8,30.08,NE,56,0.0,3.0,41,0.00,CLR,,0.00,WeatherDisplay:10.37,2013-04-05 21:45:00,
2013-04-05 16:55:00,43.1,22.1,30.08,NE,34,5.0,6.0,43,0.00,CLR,,0.00,WeatherDisplay:10.37,2013-04-05 21:55:00,
2013-04-05 17:05:00,42.9,20.8,30.09,ENE,66,1.0,4.0,41,0.00,CLR,,0.00,WeatherDisplay:10.37,2013-04-05 22:05:00,
2013-04-05 17:15:00,43.1,21.5,30.09,ENE,66,2.0,5.0,42,0.00,CLR,,0.00,WeatherDisplay:10.37,2013-04-05 22:15:00,
2013-04-05 17:20:00,42.9,21.4,30.09,ENE,65,0.0,3.0,42,0.00,CLR,,0.00,WeatherDisplay:10.37,2013-04-05 22:20:00,
2013-04-05 17:25:00,43.1,23.2,30.09,NE,54,2.0,5.0,45,0.00,CLR,,0.00,WeatherDisplay:10.37,2013-04-05 22:25:00,
2013-04-05 17:30:00,43.1,23.2,30.09,NNE,27,2.0,5.0,45,0.00,CLR,,0.00,WeatherDisplay:10.37,2013-04-05 22:30:00,
2013-04-05 17:35:00,43.1,21.5,30.09,NNE,22,0.0,1.0,42,0.00,CLR,,0.00,WeatherDisplay:10.37,2013-04-05 22:35:00,
2013-04-05 17:40:00,43.1,22.1,30.09,NNE,14,2.0,3.0,43,0.00,CLR,,0.00,WeatherDisplay:10.37,2013-04-05 22:40:00,
2013-04-05 17:45:00,42.9,21.4,30.09,North,2,0.0,3.0,42,0.00,CLR,,0.00,WeatherDisplay:10.37,2013-04-05 22:45:00,
2013-04-05 17:55:00,42.6,24.3,30.09,North,3,0.0,3.0,48,0.00,CLR,,0.00,WeatherDisplay:10.37,2013-04-05 22:55:00,
2013-04-05 18:05:00,42.3,24.0,30.08,North,6,0.0,3.0,48,0.00,CLR,,0.00,WeatherDisplay:10.37,2013-04-05 23:05:00,
2013-04-05 18:15:00,42.5,23.7,30.08,NE,45,1.0,3.0,47,0.00,CLR,,0.00,WeatherDisplay:10.37,2013-04-05 23:15:00,
2013-04-05 18:20:00,42.5,23.7,30.08,ENE,67,2.0,6.0,47,0.00,CLR,,0.00,WeatherDisplay:10.37,2013-04-05 23:20:00,
2013-04-05 18:30:00,42.2,22.9,30.08,ENE,78,2.0,5.0,46,0.00,CLR,,0.00,WeatherDisplay:10.37,2013-04-05 23:30:00,
2013-04-05 18:35:00,42.1,23.8,30.08,East,79,1.0,6.0,48,0.00,CLR,,0.00,WeatherDisplay:10.37,2013-04-05 23:35:00,
2013-04-05 18:40:00,41.9,23.1,30.08,East,82,5.0,7.0,47,0.00,CLR,,0.00,WeatherDisplay:10.37,2013-04-05 23:40:00,
2013-04-05 18:45:00,41.8,24.5,30.07,East,81,5.0,7.0,50,0.00,CLR,,0.00,WeatherDisplay:10.37,2013-04-05 23:45:00,
2013-04-05 18:50:00,41.6,24.3,30.07,ENE,73,3.0,5.0,50,0.00,CLR,,0.00,WeatherDisplay:10.37,2013-04-05 23:50:00,
2013-04-05 18:55:00,41.5,25.6,30.07,ENE,76,3.0,6.0,53,0.00,CLR,,0.00,WeatherDisplay:10.37,2013-04-05 23:55:00,
2013-04-05 19:00:00,41.3,25.4,30.07,East,82,2.0,6.0,53,0.00,CLR,,0.00,WeatherDisplay:10.37,2013-04-06 00:00:00,
2013-04-05 19:05:00,41.2,25.3,30.07,East,82,5.0,7.0,53,0.00,CLR,,0.00,WeatherDisplay:10.37,2013-04-06 00:05:00,
2013-04-05 19:10:00,41.1,26.6,30.07,East,81,6.0,7.0,56,0.00,CLR,,0.00,WeatherDisplay:10.37,2013-04-06 00:10:00,
2013-04-05 19:15:00,40.5,27.7,30.07,East,79,8.0,12.0,60,0.00,CLR,,0.00,WeatherDisplay:10.37,2013-04-06 00:15:00,
2013-04-05 19:20:00,39.9,27.9,30.07,ENE,77,7.0,12.0,62,0.00,CLR,,0.00,WeatherDisplay:10.37,2013-04-06 00:20:00,
2013-04-05 19:25:00,39.6,28.0,30.07,East,82,5.0,10.0,63,0.00,CLR,,0.00,WeatherDisplay:10.37,2013-04-06 00:25:00,
2013-04-05 19:30:00,39.3,28.1,30.07,East,91,3.0,9.0,64,0.00,CLR,,0.00,WeatherDisplay:10.37,2013-04-06 00:30:00,
2013-04-05 19:35:00,39.1,27.9,30.07,East,93,3.0,9.0,64,0.00,CLR,,0.00,WeatherDisplay:10.37,2013-04-06 00:35:00,
2013-04-05 19:40:00,38.8,28.1,30.07,East,94,3.0,10.0,65,0.00,CLR,,0.00,WeatherDisplay:10.37,2013-04-06 00:40:00,
2013-04-05 19:45:00,38.5,28.1,30.07,East,89,3.0,12.0,66,0.00,CLR,,0.00,WeatherDisplay:10.37,2013-04-06 00:45:00,
2013-04-05 19:50:00,38.2,28.2,30.07,East,92,2.0,8.0,67,0.00,CLR,,0.00,WeatherDisplay:10.37,2013-04-06 00:50:00,
2013-04-05 19:55:00,38.0,28.3,30.07,East,88,2.0,6.0,68,0.00,CLR,,0.00,WeatherDisplay:10.37,2013-04-06 00:55:00,
2013-04-05 20:05:00,37.5,27.5,30.07,ESE,109,1.0,10.0,67,0.00,CLR,,0.00,WeatherDisplay:10.37,2013-04-06 01:05:00,
2013-04-05 20:10:00,37.2,27.6,30.07,ESE,119,3.0,10.0,68,0.00,CLR,,0.00,WeatherDisplay:10.37,2013-04-06 01:10:00,
2013-04-05 20:15:00,36.9,27.0,30.07,ESE,109,1.0,14.0,67,0.00,CLR,,0.00,WeatherDisplay:10.37,2013-04-06 01:15:00,
2013-04-05 20:20:00,36.6,27.0,30.07,ESE,105,5.0,12.0,68,0.00,CLR,,0.00,WeatherDisplay:10.37,2013-04-06 01:20:00,
2013-04-05 20:25:00,36.3,26.4,30.07,ESE,110,2.0,8.0,67,0.00,CLR,,0.00,WeatherDisplay:10.37,2013-04-06 01:25:00,
2013-04-05 20:35:00,35.9,26.4,30.07,ESE,119,2.0,8.0,68,0.00,CLR,,0.00,WeatherDisplay:10.37,2013-04-06 01:35:00,
2013-04-05 20:45:00,35.5,26.3,30.07,ESE,118,3.0,10.0,69,0.00,CLR,,0.00,WeatherDisplay:10.37,2013-04-06 01:45:00,
2013-04-05 20:50:00,35.3,26.1,30.07,ESE,112,3.0,9.0,69,0.00,CLR,,0.00,WeatherDisplay:10.37,2013-04-06 01:50:00,
2013-04-05 21:00:00,34.9,25.8,30.07,ESE,108,3.0,10.0,69,0.00,CLR,,0.00,WeatherDisplay:10.37,2013-04-06 02:00:00,
2013-04-05 21:05:00,34.7,25.6,30.07,ESE,111,3.0,12.0,69,0.00,CLR,,0.00,WeatherDisplay:10.37,2013-04-06 02:05:00,
2013-04-05 21:10:00,34.6,25.8,30.07,ESE,109,2.0,6.0,70,0.00,CLR,,0.00,WeatherDisplay:10.37,2013-04-06 02:10:00,
2013-04-05 21:15:00,34.4,26.0,30.08,ESE,115,2.0,6.0,71,0.00,CLR,,0.00,WeatherDisplay:10.37,2013-04-06 02:15:00,
2013-04-05 21:20:00,34.4,26.0,30.08,ESE,118,2.0,6.0,71,0.00,CLR,,0.00,WeatherDisplay:10.37,2013-04-06 02:20:00,
2013-04-05 21:25:00,34.3,25.9,30.08,ESE,116,1.0,7.0,71,0.00,CLR,,0.00,WeatherDisplay:10.37,2013-04-06 02:25:00,
2013-04-05 21:35:00,34.3,25.9,30.07,ESE,107,1.0,7.0,71,0.00,CLR,,0.00,WeatherDisplay:10.37,2013-04-06 02:35:00,
2013-04-05 21:45:00,34.1,25.7,30.07,ESE,114,2.0,6.0,71,0.00,CLR,,0.00,WeatherDisplay:10.37,2013-04-06 02:45:00,
2013-04-05 21:55:00,34.1,25.0,30.07,SE,124,5.0,12.0,69,0.00,CLR,,0.00,WeatherDisplay:10.37,2013-04-06 02:55:00,
2013-04-05 22:00:00,34.1,25.0,30.07,ESE,122,2.0,7.0,69,0.00,CLR,,0.00,WeatherDisplay:10.37,2013-04-06 03:00:00,
2013-04-05 22:05:00,34.1,24.6,30.07,ESE,111,2.0,10.0,68,0.00,CLR,,0.00,WeatherDisplay:10.37,2013-04-06 03:05:00,
2013-04-05 22:10:00,34.0,24.9,30.07,ESE,121,2.0,5.0,69,0.00,CLR,,0.00,WeatherDisplay:10.37,2013-04-06 03:10:00,
2013-04-05 22:15:00,34.0,24.9,30.07,ESE,121,6.0,13.0,69,0.00,CLR,,0.00,WeatherDisplay:10.37,2013-04-06 03:15:00,
2013-04-05 22:20:00,34.0,23.5,30.07,ESE,122,5.0,9.0,65,0.00,CLR,,0.00,WeatherDisplay:10.37,2013-04-06 03:20:00,
2013-04-05 22:25:00,33.8,22.9,30.07,East,101,3.0,8.0,64,0.00,CLR,,0.00,WeatherDisplay:10.37,2013-04-06 03:25:00,
2013-04-05 22:30:00,33.8,22.5,30.07,East,101,5.0,9.0,63,0.00,CLR,,0.00,WeatherDisplay:10.37,2013-04-06 03:30:00,
2013-04-05 22:40:00,33.8,22.1,30.07,ESE,107,1.0,8.0,62,0.00,CLR,,0.00,WeatherDisplay:10.37,2013-04-06 03:40:00,
2013-04-05 22:45:00,33.8,22.1,30.07,ESE,120,1.0,5.0,62,0.00,CLR,,0.00,WeatherDisplay:10.37,2013-04-06 03:45:00,
2013-04-05 22:55:00,33.7,21.3,30.07,East,101,1.0,7.0,60,0.00,CLR,,0.00,WeatherDisplay:10.37,2013-04-06 03:55:00,
2013-04-05 23:05:00,33.8,21.0,30.07,East,94,2.0,9.0,59,0.00,CLR,,0.00,WeatherDisplay:10.37,2013-04-06 04:05:00,
2013-04-05 23:15:00,33.8,21.0,30.06,East,84,8.0,12.0,59,0.00,CLR,,0.00,WeatherDisplay:10.37,2013-04-06 04:15:00,
2013-04-05 23:20:00,33.8,21.0,30.06,East,91,5.0,10.0,59,0.00,CLR,,0.00,WeatherDisplay:10.37,2013-04-06 04:20:00,
2013-04-05 23:25:00,33.8,21.4,30.06,East,91,3.0,8.0,60,0.00,CLR,,0.00,WeatherDisplay:10.37,2013-04-06 04:25:00,
2013-04-05 23:30:00,33.8,21.4,30.06,East,98,2.0,8.0,60,0.00,CLR,,0.00,WeatherDisplay:10.37,2013-04-06 04:30:00,
2013-04-05 23:35:00,33.8,21.4,30.06,ESE,111,2.0,6.0,60,0.00,CLR,,0.00,WeatherDisplay:10.37,2013-04-06 04:35:00,
2013-04-05 23:45:00,33.8,22.1,30.07,ESE,105,0.0,8.0,62,0.00,CLR,,0.00,WeatherDisplay:10.37,2013-04-06 04:45:00,
2013-04-05 23:55:00,33.8,21.8,30.07,SE,129,2.0,8.0,61,0.00,CLR,,0.00,WeatherDisplay:10.37,2013-04-06 04:55:00,